#timestamp,LO_Frequency,Hit,StdDev 
1604732415.4,286046996.8,N
1604732435.2,286046997.9,N
1604732455.1,286046997.4,N
1604732456.0,286046997.4,N
1604732475.8,286046999.4,N
1604732495.6,286046999.3,N
1604732515.5,286046998.4,N
1604732535.3,286046999.0,N
1604732555.2,286046997.1,N
1604732575.9,286046997.0,N
1604732595.7,286046998.4,N
1604732615.6,286046998.7,N
1604732635.4,286046999.6,N
1604732655.2,286046997.0,N
1604732675.1,286046997.7,N
1604732676.0,286046997.7,N
1604732695.8,286046995.6,N
1604732715.7,286046995.6,N
1604732765.5,286046997.7,E
1604732775.5,286046997.1,N
1604732795.3,286047000.6,P
1604732815.1,286046999.9,N
1604732835.9,286047000.5,N
1604732855.7,286046998.6,N
1604732875.5,286046998.9,N
1604732895.4,286046999.6,N
1604732915.2,286046997.1,N
1604732935.1,286046996.6,N
1604732936.0,286046996.6,N
1604732955.8,286046996.9,N
1604732975.6,286046996.6,N
1604732995.5,286046999.0,N
1604733015.3,286046998.2,N
1604733035.1,286046999.5,N
1604733055.9,286046999.0,N
1604733075.7,286046999.6,N
1604733095.6,286046999.6,N
1604733115.4,286046996.6,N
1604733135.2,286046999.0,N
1604733185.1,286046999.2,E
1604733195.0,286046998.4,N
1604733195.9,286046998.4,P
1604733215.7,286046999.3,P
1604733235.6,286046999.2,N
1604733255.4,286046999.6,N
1604733275.3,286046999.5,N
1604733295.1,286046999.1,N
1604733296.0,286046999.1,N
1604733315.8,286046998.3,Y
1604733335.7,286046998.3,P
1604733355.5,286046998.6,P
1604733375.4,286046998.5,P
1604733395.2,286046998.7,Y
1604733415.0,286046998.7,P
1604733415.9,286046998.7,P
1604733435.8,286047001.0,P
1604733455.6,286046998.5,N
1604733475.4,286046998.8,N
1604733495.3,286046998.7,N
1604733515.1,286046998.6,N
1604733535.9,286046998.8,N
1604733555.7,286047001.1,N
1604733575.5,286046998.5,N
1604733595.4,286046998.6,N
1604733615.2,286046999.5,N
1604733635.1,286047001.2,N
1604733636.0,286047001.2,N
1604733655.8,286046998.6,N
1604733675.6,286046998.1,N
1604733695.5,286046998.6,N
1604733715.3,286046998.3,N
1604733735.1,286046998.5,N
1604733755.9,286046998.7,N
1604733775.7,286047000.9,N
1604733795.6,286046998.2,N
1604733815.4,286046998.6,N
1604733835.2,286047000.4,N
1604733855.1,286047001.0,N
1604733856.0,286047001.0,N
1604733875.8,286046998.3,N
1604733895.6,286046998.1,N
1604733915.5,286047000.8,N
1604733935.3,286047000.1,N
1604733955.2,286046999.7,N
1604733975.9,286047001.9,N
1604733995.7,286047001.8,N
1604734015.6,286047001.9,N
1604734035.4,286047001.8,N
1604734055.3,286047004.4,Y
1604734075.1,286047001.8,P
1604734076.0,286047001.8,N
1604734095.8,286047002.2,N
1604734115.7,286046999.8,N
1604734135.5,286047002.4,N
1604734155.3,286047000.2,N
1604734175.2,286047002.1,N
1604734195.0,286047002.2,N
1604734195.9,286047002.2,N
1604734215.8,286047002.6,N
1604734235.6,286047001.4,N
1604734255.4,286047004.4,Y
1604734275.3,286047000.4,P
1604734295.1,286047002.3,P
1604734315.8,286047002.7,P
1604734335.7,286047000.1,N
1604734355.5,286047002.7,N
1604734375.4,286047000.2,N
1604734395.2,286047000.1,N
1604734415.0,286047000.2,N
1604734415.9,286047000.2,N
1604734435.8,286047000.1,N
1604734455.6,286046999.8,N
1604734475.4,286047000.9,N
1604734495.3,286047000.1,N
1604734515.1,286047000.0,N
1604734535.9,286046999.7,N
1604734555.7,286047002.8,N
1604734575.5,286047002.3,N
1604734595.4,286047001.6,N
1604734615.2,286047001.3,N
1604734635.0,286047002.0,N
1604734636.0,286047002.0,N
1604734655.8,286047004.4,Y
1604734675.6,286047002.4,P
1604734695.5,286047002.5,P
1604734715.3,286046999.9,N
1604734735.1,286047000.2,N
1604734755.9,286047002.3,N
1604734775.7,286047002.6,N
1604734795.6,286047002.2,N
1604734815.4,286047002.7,N
1604734835.2,286047002.8,N
1604734855.1,286047011.9,Y
1604734856.0,286047002.0,P
1604734875.8,286047000.2,N
1604734895.7,286047002.7,P
1604734915.5,286047000.4,N
1604734935.3,286046999.8,N
1604734955.2,286047000.6,N
1604734975.9,286047000.9,N
1604734995.7,286047002.7,N
1604735015.6,286047000.9,N
1604735035.4,286046999.8,N
1604735055.3,286047001.0,N
1604735075.1,286047002.6,N
1604735076.0,286047002.6,N
1604735095.8,286047002.2,N
1604735115.7,286046999.8,N
1604735135.5,286047001.2,N
1604735155.3,286046998.2,N
1604735175.2,286047001.2,N
1604735195.0,286047001.1,N
1604735195.9,286047001.1,N
1604735215.8,286046999.8,N
1604735235.6,286047001.0,N
1604735255.4,286046998.2,N
1604735275.3,286047000.9,N
1604735295.1,286047000.5,N
1604735315.9,286046999.8,N
1604735335.7,286047001.6,N
1604735355.5,286047000.7,N
1604735375.4,286046998.5,N
1604735395.2,286046998.9,N
1604735415.0,286046998.1,N
1604735415.9,286046998.1,N
1604735435.8,286047000.7,N
1604735455.6,286046998.3,N
1604735475.5,286047001.1,N
1604735495.3,286047000.8,N
1604735515.1,286047003.9,N
1604735535.9,286047007.0,Y
1604735555.7,286047003.8,P
1604735575.6,286047001.4,N
1604735595.4,286047004.1,N
1604735615.2,286047003.9,N
1604735635.1,286047004.0,N
1604735636.0,286047004.0,N
1604735655.8,286047002.2,N
1604735675.6,286046999.9,N
1604735695.5,286047000.3,N
1604735715.3,286047001.1,N
1604735735.2,286047000.7,N
1604735755.9,286047001.2,N
1604735775.7,286047001.1,N
1604735795.6,286046998.1,N
1604735815.4,286047000.5,N
1604735835.2,286047001.1,N
1604735855.1,286047001.2,N
1604735856.0,286047001.2,N
1604735875.8,286046998.6,N
1604735895.7,286046998.3,N
1604735915.5,286046998.5,N
1604735935.3,286046998.7,N
1604735955.2,286046998.1,N
1604735975.0,286047000.3,N
1604735975.9,286047000.3,N
1604735995.8,286047000.3,N
